{"data":{"norad_id":58721,"intl_designator":"2024-002S","name":"STARLINK-30972","alt_names":[],"object_type":"PAYLOAD","status":"ACTIVE","operator":null,"country":"US","launch_date":"2024-01-03","launch_site_code":"AFWTR","launch_vehicle":null,"mission":null,"orbit_class":"UNKNOWN","rcs_meters":null,"size_class":null,"mass_kg":null,"dimensions":null,"purposes":["comms"],"wikipedia_slug":null,"has_3d_model":false,"image_url":null,"decayed_at":null,"tle_current":{"epoch":"2026-09-20T13:34:00.594624Z","epoch_age_seconds":144215,"freshness":"FRESH","line1":"1 58721U 24002S   26263.56528466 -.00003201  00000+0 -83699-4 0  9998","line2":"2 58721  53.1591  43.2016 0000739  48.3835 311.7230 15.34384573151877","mean_motion":15.34384573,"eccentricity":7.39e-5,"inclination_deg":53.1591,"raan_deg":43.2016,"arg_perigee_deg":48.3835,"mean_anomaly_deg":311.723,"bstar":-8.3699e-5,"rev_number":15187,"period_min":93.848701644891,"perigee_km":462.24355140411,"apogee_km":463.25463436864,"semimajor_km":6840.8860928864,"source":"CELESTRAK","updated_at":"2026-09-21T09:00:33.950346Z"}}}